Location: Hermaringen
(48.5952°N, 10.2585°E)
Time: 15:29:38
(UTC+00:00)

Vanguard 3 - Pass Details

Date: 17 February 2026
Orbit: 507 x 3205 km, 33.3° (Epoch: 5 March)

Event Time Altitude Azimuth Distance (km) Brightness Sun altitude
Rises 17:11:03 0° 241° (WSW) 4,607 12.8 -5.3°
Reaches altitude 10° 17:15:44 10° 225° (SW) 3,087 11.1 -6.0°
Maximum altitude 17:20:17 18° 186° (S) 2,060 9.4 -6.8°
Drops below altitude 10° 17:23:44 10° 143° (SE) 2,222 9.1 -7.3°
Enters shadow 17:26:09 - 124° (SE) 2,831 9.5 -7.7°
